Content
SEND FEEDBACK

Daily
Averages
Monthly
Summary
Canada

PELEE ISLAND, ONTARIO


Home > North America > Canada > Ontario
Elevation: 571 feet     Latitude: 41 46N     Longitude: 082 40W

WEATHER
 
SELECT A DAY
Number of Records: 122,510;   Date Range: 12/10/00 - 7/30/14
 
SHARE

PRINT THIS DATA

[ ← Previous Day ]
WEATHER ALMANAC - MARCH 1, 2013
[ Next Day → ]
[ °C ]   °F
Weather ElementAverageHighLow
Temperature27.8 °F30.2 °F (1:00 am)26.4 °F (10:00 am)
Dewpoint20.9 °F25 °F (1:00 am)18.7 °F (10:00 am)
Humidity73.8 %80 % (1:00 am)61 % (1:00 pm)
Barometer30.03 in30.10 in (10:00 pm)29.95 in (1:00 am)
Wind Speed9.9 mph12.7 mph (5:00 am)
Wind Gust19.6 mph (8:00 am)
Weather ElementAverage
Wind DirectionSE (138.9 °)

Weather ElementTotal
Precipitation0.02 in
Heating Degree Days36.7 (Base 65)
Averaged from 27 records on March 1, 2013
WEATHER CONDITIONS BREAKOUT
WIND DIRECTION BREAKOUT
WEATHER BY HOUR - MARCH 1, 2013
[ °C ]   °F
Local TimeTemperatureDewpointHumidityBarometerVisibilityWind DirectionWind SpeedGust SpeedPrecipitationEventsConditions
1:00 AM30.0 °F25.0 °F73 %29.95 inNorth (350°)6.9 mph
1:00 AM30.2 °F24.6 °F80 %29.95 inNorth (350°)6.9 mph
2:00 AM30.2 °F24.4 °F79 %29.96 inNorth (350°)8.1 mph
3:00 AM29.7 °F23.9 °F79 %29.96 inNorth (360°)10.4 mph
4:00 AM29.3 °F23.4 °F78 %29.96 inNorth (10°)9.2 mph
5:00 AM28.8 °F22.5 °F77 %29.98 inNNE (20°)12.7 mph18.4 mph
6:00 AM28.4 °F21.2 °F74 %29.99 inNNE (20°)10.4 mph
7:00 AM28.0 °F21.0 °F64 %30.00 inNorth (10°)9.2 mph
7:00 AM28.0 °F20.7 °F74 %30.00 inNorth (10°)9.2 mph
8:00 AM27.5 °F20.1 °F74 %30.02 inNorth (360°)10.4 mph19.6 mph
9:00 AM26.8 °F19.2 °F73 %30.05 inNorth (10°)11.5 mph17.3 mph
10:00 AM26.4 °F18.7 °F73 %30.05 inNorth (10°)11.5 mph19.6 mph
11:00 AM27.5 °F19.9 °F73 %30.06 inNorth (360°)9.2 mph
12:00 PM27.5 °F19.9 °F73 %30.06 inNorth (360°)11.5 mph19.6 mph
1:00 PM28.0 °F20.0 °F61 %30.06 inNorth (350°)8.1 mph
1:00 PM27.9 °F19.9 °F72 %30.06 inNorth (350°)8.1 mph
2:00 PM27.5 °F19.9 °F73 %30.05 inNorth (10°)11.5 mph17.3 mph
3:00 PM27.9 °F20.1 °F73 %30.05 inNorth (10°)9.2 mph
4:00 PM28.2 °F19.0 °F68 %30.04 inNorth (10°)10.4 mph
5:00 PM27.3 °F20.7 °F76 %30.06 inNNE (20°)9.2 mph
6:00 PM27.1 °F20.1 °F75 %30.08 inNorth (10°)9.2 mph
7:00 PM27.0 °F20.0 °F65 %30.09 inNorth (10°)10.4 mph
7:00 PM26.8 °F19.9 °F75 %30.09 inNorth (10°)10.4 mph
8:00 PM26.4 °F20.3 °F78 %30.09 inNNE (20°)11.5 mph17.3 mph
9:00 PM26.4 °F20.1 °F77 %30.09 inNorth (10°)11.5 mph17.3 mph0.02 in
10:00 PM26.6 °F20.1 °F77 %30.10 inNorth (10°)11.5 mph
11:00 PM26.4 °F20.5 °F78 %30.09 inNorth (350°)8.1 mph
Hourly data recorded from CXHA, located miles away from Pelee Island, Ontario







STORIES FROM OUR PARTNERS